Location: *
(43.7000°S, 168.7000°W)
Time: 15:07:28
(UTC+00:00)

Aureole 3 - Pass Details

Date: 07 July 2020
Orbit: 382 x 1234 km, 82.5° (Epoch: 03 August)

Event Time Altitude Azimuth Distance (km) Brightness Sun altitude
Rises 18:14:09 0° 190° (S) 3,651 7.2 -6.2°
Reaches altitude 10° 18:16:56 10° 190° (S) 2,561 6.4 -5.7°
Maximum altitude 18:22:41 81° 276° (W) 748 3.9 -4.8°
Drops below altitude 10° 18:27:05 10° 3° (N) 1,976 6.6 -4.1°
Sets 18:29:01 0° 4° (N) 2,761 7.4 -3.8°
